Location: Newark
(44.6028°N, 124.0883°W)
Time: 17:27:39
(UTC+00:00)

Vanguard 1 - Pass Details

Date: 29 October 2019
Orbit: 652 x 3831 km, 34.2° (Epoch: 13 November)

Event Time Altitude Azimuth Distance (km) Brightness Sun altitude
Rises 05:56:02 0° 268° (W) 4,426 13.9 -49.1°
Reaches altitude 10° 05:58:55 10° 258° (WSW) 3,796 13.3 -49.5°
Enters shadow 06:02:08 22° 241° (WSW) 3,340 12.8 -49.9°
Maximum altitude 06:07:45 32° 200° (SSW) 3,371 - -50.7°
Drops below altitude 10° 06:21:52 10° 147° (SSE) 6,107 - -52.4°
Sets 06:28:16 0° 139° (SE) 7,533 - -53.1°
